[[{"header":{"parameterUnit":"m.s-1","parameterCategory":1,"la1":30.2991,"la2":30.254,"lo1":-89.0895,"lo2":-89.0444,"dy":0.0017,"dx":0.0017,"nx":28,"ny":28,"refTime":"2024-02-28T09:00:00:Z","depth":0,"parameterNumber":2,"parameterNumberName":"U-component_of_WINDS"},"data":[0,0,0,0,0,0,0,0,0,0,0,0,0,0,0,0,0,0,0,0,0,0,0,0,0,0,0,0,0,0,0,0,0,0,0,0,0,0,0,0,0,0,0,0,0,0,0,0,0,0,0,0,0,0,0,0,0,0,-5.3841,-5.3842,0,-5.3952,-5.3954,-5.3955,-5.384,-5.3836,-5.3832,-5.3827,-5.3944,-5.3951,-5.3958,0,0,0,0,0,0,0,0,0,0,0,0,0,-5.353,-5.3537,-5.3841,-5.3842,-5.3844,-5.3952,-5.3954,-5.3955,-5.3841,-5.3836,-5.383,-5.3825,-5.3942,-5.395,-5.3959,0,0,0,0,0,0,0,0,0,0,0,0,0,-5.3656,-5.3539,-5.3841,-5.38,-5.3797,-5.3952,-5.3954,-5.3956,-5.3842,-5.3836,-5.3829,-5.3823,-5.3939,-5.3949,-5.396,-5.4161,0,0,-5.3993,-5.3998,0,0,0,0,0,0,0,0,-5.3649,-5.3667,-5.3804,-5.3803,-5.38,-5.3875,-5.3887,-5.4025,-5.3844,-5.3825,-5.3827,-5.3819,-5.3927,-5.3938,-5.3974,-5.4167,-5.4172,-5.3994,-5.4001,-5.4006,-5.4009,0,0,0,0,0,0,0,-5.364,-5.3662,-5.3885,-5.3806,-5.3804,-5.3776,-5.3787,-5.3912,-5.3912,-5.3826,-5.3818,-5.3833,-5.3924,-5.3964,-5.3976,-5.4173,-5.3994,-5.4004,-5.401,-5.4015,-5.4535,-5.4542,0,0,0,0,0,0,-5.3636,-5.3655,-5.3881,-5.3888,-5.3706,-5.3787,-5.3799,-5.3858,-5.3911,-5.3912,-5.3839,-5.3827,-5.3948,-5.3963,-5.3979,-5.4217,-5.4005,-5.4016,-5.4022,-5.4528,-5.4536,-5.4544,0,0,0,0,0,0,-5.363,-5.3657,-5.3877,-5.377,-5.3796,-5.38,-5.3867,-5.3864,-5.3903,-5.392,-5.3919,-5.3879,-5.3944,-5.3964,-5.4116,-5.422,-5.4021,-5.403,-5.4519,-5.453,-5.454,-5.4695,0,0,0,0,0,0,-5.3621,-5.3656,-5.3732,-5.3772,-5.3802,-5.4012,-5.3874,-5.3871,-5.3922,-5.3908,-5.3957,-5.3959,-5.394,-5.4101,-5.4127,-5.4231,-5.4039,-5.451,-5.4524,-5.4537,-5.4681,-5.471,-5.4735,0,0,0,0,0,-5.3611,-5.3772,-5.3736,-5.3764,-5.3897,-5.4018,-5.4035,-5.4009,-5.3931,-5.4007,-5.4018,-5.3957,-5.4204,-5.4117,-5.4146,-5.4255,-5.4503,-5.452,-5.4536,-5.4669,-5.4704,-5.4734,0,0,0,0,0,0,-5.3745,-5.3777,-5.3738,-5.3917,-5.3966,-5.3999,-5.4095,-5.4048,-5.4121,-5.4105,-5.407,-5.4082,-5.4243,-5.4264,-5.4167,-5.4451,-5.4341,-5.4364,-5.4432,-5.4466,-5.4492,-5.4484,-5.4048,0,0,0,0,0,-5.3795,-5.3891,-5.3913,-5.4069,-5.4095,-5.4091,-5.4143,-5.4119,-5.4168,-5.4189,-5.421,-5.4261,-5.4349,-5.4409,-5.4491,-5.4683,-5.4692,-5.4772,-5.4799,-5.4821,-5.4842,-5.4943,-5.4979,-5.4598,-5.4598,-5.4598,0,0,-5.3901,-5.393,-5.3992,-5.4097,-5.4132,-5.4231,-5.411,-5.422,-5.4294,-5.4206,-5.435,-5.4368,-5.4422,-5.4595,-5.4672,-5.4617,-5.4949,-5.4842,-5.486,-5.4868,-5.4964,-5.5,-5.5032,-5.4609,-5.4607,-5.4605,0,0,-5.4143,-5.4175,-5.4308,-5.4345,-5.4399,-5.4395,-5.4427,-5.4467,-5.4475,-5.4619,-5.4554,-5.4641,-5.4795,-5.4836,-5.4877,-5.5134,-5.5081,-5.5162,-5.5303,-5.5403,-5.5433,-5.5459,-5.555,-5.5583,-5.5182,-5.5182,-5.5182,0,-5.4268,-5.4415,-5.4382,-5.4497,-5.4545,-5.4468,-5.4602,-5.464,-5.4719,-5.4754,-5.4691,-5.4881,-5.4912,-5.5093,-5.5155,-5.5191,-5.5226,-5.5156,-5.5431,-5.5457,-5.5481,-5.5567,-5.5602,-5.5192,-5.519,-5.5189,-5.5189,0,-5.4564,-5.4667,-5.4768,-5.4844,-5.4903,-5.5028,-5.5014,-5.5078,-5.5048,-5.505,-5.5198,-5.5232,-5.532,-5.5361,-5.5334,-5.5538,-5.5502,-5.5436,-5.5324,-5.5528,-5.5608,-5.5641,-5.5205,-5.5202,-5.5199,-5.5197,0,0,-5.4896,-5.4951,-5.4989,-5.5022,-5.5075,-5.5154,-5.5275,-5.5359,-5.5414,-5.5471,-5.557,-5.5701,-5.564,-5.5687,-5.5663,-5.5751,-5.5951,-5.5674,-5.5674,-5.5724,-5.6176,-5.6225,-5.6264,-5.5915,-5.5922,-5.5927,-5.6171,0,-5.5139,-5.5347,-5.5321,-5.552,-5.5614,-5.5542,-5.5646,-5.569,-5.5696,-5.5776,-5.5782,-5.5875,-5.5788,-5.5815,-5.5899,-5.5909,-5.6041,-5.5891,-5.6008,-5.6013,-5.5996,-5.6306,-5.6359,-5.6588,-5.6203,-5.6208,-5.6212,0,-5.5451,-5.5517,-5.5726,-5.5762,-5.5801,-5.5896,-5.597,-5.6048,-5.6096,-5.6094,-5.6146,-5.6106,-5.6226,-5.6112,-5.6277,-5.6176,-5.6222,-5.6234,-5.6242,-5.6252,-5.6125,-5.6324,-5.6661,-5.6695,-5.6261,-5.6257,-5.6254,0,-5.5671,-5.5812,-5.5955,-5.5985,-5.6033,-5.61,-5.6123,-5.6165,-5.6217,-5.6282,-5.6315,-5.6395,-5.6438,-5.6501,-5.6483,-5.6402,-5.6652,-5.6537,-5.6654,-5.6654,-5.671,-5.6707,-5.7059,-5.6741,-5.674,-5.674,-5.6739,0,-5.5945,-5.6075,-5.6054,-5.6142,-5.6285,-5.6253,-5.6396,-5.641,-5.6448,-5.6537,-5.648,-5.6565,-5.6537,-5.662,-5.6608,-5.6746,-5.6766,-5.6768,-5.6763,-5.6773,-5.6773,-5.6803,-5.6786,-5.6749,-5.6747,-5.6745,-5.6743,0,-5.6215,-5.6206,-5.6356,-5.6388,-5.6399,-5.6503,-5.653,-5.6613,-5.6613,-5.6726,-5.6751,-5.6752,-5.6847,-5.6836,-5.6943,-5.6934,-5.7106,-5.7082,-5.709,-5.7084,-5.7201,-5.719,-5.7585,-5.7634,-5.7285,-5.7288,-5.7291,0,-5.6391,-5.6489,-5.653,-5.6585,-5.6613,-5.6703,-5.6755,-5.6727,-5.6784,-5.6846,-5.6921,-5.7011,-5.7081,-5.7236,-5.7247,-5.7328,-5.7305,-5.7438,-5.7317,-5.7324,-5.7306,-5.7301,-5.731,-5.7462,-5.7466,-5.7469,-5.7472,0,-5.6703,-5.6693,-5.677,-5.6846,-5.691,-5.6969,-5.7021,-5.707,-5.7047,-5.7114,-5.721,-5.7265,-5.7373,-5.7463,-5.7539,-5.7562,-5.7514,-5.7509,-5.754,-5.7552,-5.7552,-5.7552,-5.7154,-5.75,-5.7498,-5.7495,-5.7494,-5.7493,-5.693,-5.7014,-5.7056,-5.7143,-5.718,-5.723,-5.7309,-5.7318,-5.7397,-5.7482,-5.7461,-5.757,-5.7614,-5.7711,-5.7743,-5.7827,-5.7779,-5.7825,-5.7836,-5.7848,-5.7861,-5.7538,-5.7841,-5.784,-5.784,-5.7839,-5.7838,0,-5.7239,-5.7262,-5.7343,-5.7418,-5.7487,-5.7433,-5.7489,-5.755,-5.7646,-5.7691,-5.7761,-5.7871,-5.7957,-5.7974,-5.8056,-5.812,-5.81,-5.8143,-5.8138,-5.8144,-5.79,-5.7864,-5.8158,-5.8158,-5.8158,-5.8158,-5.8158,-5.8158,-5.7407,-5.7545,-5.754,-5.7695,-5.7717,-5.7822,-5.7858,-5.7905,-5.794,-5.8065,-5.8136,-5.8146,-5.8179,-5.8263,-5.834,-5.8343,-5.8376,-5.8427,-5.8421,-5.8193,-5.8161,-5.8131,-5.8097,-5.8435,-5.8435,-5.8658,-5.866,-5.8662]},{"header":{"parameterUnit":"m.s-1","parameterCategory":1,"la1":30.2991,"la2":30.254,"lo1":-89.0895,"lo2":-89.0444,"dy":0.0017,"dx":0.0017,"nx":28,"ny":28,"refTime":"2024-02-28T09:00:00:Z","depth":0,"parameterNumber":3,"parameterNumberName":"V-component_of_WINDS"},"data":[0,0,0,0,0,0,0,0,0,0,0,0,0,0,0,0,0,0,0,0,0,0,0,0,0,0,0,0,0,0,0,0,0,0,0,0,0,0,0,0,0,0,0,0,0,0,0,0,0,0,0,0,0,0,0,0,0,0,-1.7429,-1.7429,0,-1.7398,-1.7398,-1.7398,-1.7364,-1.7364,-1.7363,-1.7363,-1.7332,-1.7332,-1.7332,0,0,0,0,0,0,0,0,0,0,0,0,0,-1.7459,-1.7459,-1.7429,-1.7429,-1.7428,-1.7398,-1.7398,-1.7397,-1.7364,-1.7364,-1.7363,-1.7362,-1.7332,-1.7332,-1.7332,0,0,0,0,0,0,0,0,0,0,0,0,0,-1.7439,-1.7459,-1.7429,-1.7408,-1.7406,-1.7398,-1.7398,-1.7397,-1.7364,-1.7364,-1.7363,-1.7362,-1.7333,-1.7332,-1.7332,-1.7343,0,0,-1.733,-1.733,0,0,0,0,0,0,0,0,-1.744,-1.7438,-1.7412,-1.741,-1.7407,-1.7384,-1.7397,-1.7379,-1.7365,-1.738,-1.7363,-1.7362,-1.735,-1.7348,-1.7344,-1.7341,-1.734,-1.733,-1.733,-1.7329,-1.7329,0,0,0,0,0,0,0,-1.7442,-1.7439,-1.7417,-1.7411,-1.7409,-1.74,-1.7396,-1.7394,-1.737,-1.7379,-1.7376,-1.7373,-1.7349,-1.7345,-1.7343,-1.734,-1.733,-1.7329,-1.7329,-1.7329,-1.7342,-1.7343,0,0,0,0,0,0,-1.7446,-1.744,-1.7418,-1.7416,-1.7422,-1.74,-1.7396,-1.7392,-1.737,-1.7365,-1.7374,-1.7372,-1.7346,-1.7344,-1.7342,-1.7352,-1.7329,-1.7329,-1.7329,-1.7342,-1.7342,-1.7343,0,0,0,0,0,0,-1.7447,-1.7444,-1.7419,-1.7428,-1.7424,-1.74,-1.7397,-1.7392,-1.7388,-1.7366,-1.7361,-1.7374,-1.7345,-1.7343,-1.7342,-1.7351,-1.7329,-1.7328,-1.7341,-1.7342,-1.7343,-1.7373,0,0,0,0,0,0,-1.7448,-1.7445,-1.7449,-1.7428,-1.7423,-1.742,-1.7397,-1.7392,-1.7387,-1.7384,-1.7365,-1.7361,-1.7345,-1.7343,-1.7342,-1.7349,-1.7328,-1.734,-1.7341,-1.7343,-1.7372,-1.7375,-1.7379,0,0,0,0,0,-1.7449,-1.746,-1.745,-1.7447,-1.7428,-1.7421,-1.7418,-1.7399,-1.7388,-1.7391,-1.7377,-1.7361,-1.735,-1.7343,-1.7341,-1.7349,-1.7339,-1.7341,-1.7342,-1.737,-1.7375,-1.7379,0,0,0,0,0,0,-1.7483,-1.7457,-1.7445,-1.7449,-1.7437,-1.7415,-1.7419,-1.7405,-1.7396,-1.7394,-1.7371,-1.7367,-1.7368,-1.7359,-1.7352,-1.7358,-1.7342,-1.7344,-1.7364,-1.7368,-1.7372,-1.7374,-1.7327,0,0,0,0,0,-1.7491,-1.7487,-1.7464,-1.747,-1.7464,-1.7443,-1.7439,-1.7425,-1.7412,-1.7407,-1.7393,-1.7381,-1.7375,-1.7371,-1.7364,-1.737,-1.7365,-1.7374,-1.7378,-1.7381,-1.7382,-1.7383,-1.7386,-1.7348,-1.7348,-1.7348,0,0,-1.7508,-1.7493,-1.7492,-1.7476,-1.7466,-1.7462,-1.7439,-1.7437,-1.7433,-1.7407,-1.7405,-1.7394,-1.7379,-1.7382,-1.7382,-1.7374,-1.7391,-1.7383,-1.7385,-1.7385,-1.7385,-1.7388,-1.7392,-1.7349,-1.7349,-1.7349,0,0,-1.7535,-1.7524,-1.7527,-1.7516,-1.75,-1.7485,-1.7486,-1.7465,-1.7457,-1.7454,-1.7434,-1.743,-1.742,-1.7409,-1.7403,-1.7425,-1.741,-1.7424,-1.7442,-1.7443,-1.7446,-1.7449,-1.7455,-1.7458,-1.7425,-1.7425,-1.7425,0,-1.7558,-1.7551,-1.753,-1.7528,-1.7521,-1.7496,-1.7498,-1.7489,-1.7472,-1.7468,-1.7459,-1.7444,-1.7433,-1.7431,-1.7437,-1.7433,-1.7432,-1.7426,-1.7447,-1.745,-1.7452,-1.7458,-1.7461,-1.7427,-1.7427,-1.7426,-1.7426,0,-1.7579,-1.7575,-1.7579,-1.7561,-1.7555,-1.7556,-1.7534,-1.753,-1.7516,-1.7503,-1.75,-1.7485,-1.7474,-1.7472,-1.746,-1.7469,-1.7464,-1.7452,-1.7435,-1.7457,-1.7463,-1.7465,-1.7429,-1.7429,-1.7428,-1.7428,0,0,-1.7628,-1.7598,-1.7599,-1.759,-1.757,-1.7566,-1.7565,-1.7553,-1.755,-1.7538,-1.7536,-1.7527,-1.7515,-1.7507,-1.7493,-1.7494,-1.7511,-1.7481,-1.748,-1.7486,-1.7519,-1.7528,-1.7531,-1.7501,-1.7501,-1.7502,-1.752,0,-1.7651,-1.7647,-1.7627,-1.7628,-1.7623,-1.7599,-1.7597,-1.7584,-1.7571,-1.7565,-1.7551,-1.7544,-1.7529,-1.7524,-1.7524,-1.7509,-1.7517,-1.7507,-1.7498,-1.7498,-1.7502,-1.7534,-1.7544,-1.7561,-1.7522,-1.7522,-1.7522,0,-1.7678,-1.7667,-1.7668,-1.7646,-1.7643,-1.7642,-1.7628,-1.7623,-1.7608,-1.7598,-1.7589,-1.7572,-1.7569,-1.7554,-1.7548,-1.7542,-1.7537,-1.7529,-1.7529,-1.7527,-1.7511,-1.7532,-1.7567,-1.7569,-1.7526,-1.7525,-1.7525,0,-1.7712,-1.7698,-1.7695,-1.7689,-1.7664,-1.7663,-1.7653,-1.7636,-1.763,-1.7619,-1.7614,-1.7603,-1.7596,-1.7588,-1.7568,-1.756,-1.7565,-1.7549,-1.7556,-1.7556,-1.7558,-1.7558,-1.7592,-1.7556,-1.7556,-1.7556,-1.7556,0,-1.774,-1.7741,-1.771,-1.7709,-1.7709,-1.7686,-1.7686,-1.7674,-1.7659,-1.7654,-1.7633,-1.7629,-1.7604,-1.7598,-1.7583,-1.7579,-1.7577,-1.7569,-1.7565,-1.757,-1.7571,-1.7566,-1.7564,-1.7557,-1.7556,-1.7556,-1.7556,0,-1.7778,-1.7757,-1.7753,-1.7729,-1.7723,-1.7724,-1.7703,-1.7701,-1.7686,-1.768,-1.7678,-1.7654,-1.7645,-1.7625,-1.7611,-1.76,-1.76,-1.7594,-1.7605,-1.7603,-1.7611,-1.761,-1.7642,-1.7644,-1.7608,-1.7609,-1.7609,0,-1.7796,-1.7796,-1.7772,-1.7767,-1.7757,-1.7749,-1.7742,-1.7719,-1.7713,-1.7694,-1.7694,-1.7683,-1.7673,-1.7659,-1.7641,-1.7629,-1.7621,-1.7633,-1.762,-1.7625,-1.762,-1.762,-1.7619,-1.7636,-1.7637,-1.7637,-1.7638,0,-1.7831,-1.782,-1.7811,-1.7798,-1.779,-1.7778,-1.7766,-1.7763,-1.7737,-1.7731,-1.772,-1.7712,-1.7697,-1.7686,-1.7671,-1.766,-1.7644,-1.7642,-1.7643,-1.7648,-1.7654,-1.765,-1.7613,-1.7641,-1.7641,-1.7641,-1.764,-1.764,-1.7859,-1.7857,-1.7839,-1.7829,-1.7816,-1.7805,-1.7801,-1.7785,-1.7776,-1.7761,-1.7748,-1.7739,-1.7722,-1.77,-1.769,-1.7683,-1.7675,-1.7676,-1.7677,-1.7677,-1.7679,-1.7656,-1.768,-1.768,-1.768,-1.768,-1.768,0,-1.7891,-1.7878,-1.7869,-1.7851,-1.7843,-1.7828,-1.7813,-1.7807,-1.7799,-1.7784,-1.7774,-1.7762,-1.7751,-1.7731,-1.7718,-1.7715,-1.7708,-1.7713,-1.7712,-1.771,-1.7687,-1.7687,-1.7719,-1.7719,-1.7719,-1.7719,-1.7719,-1.7719,-1.7907,-1.7903,-1.789,-1.7879,-1.7866,-1.7856,-1.7848,-1.7837,-1.7825,-1.7812,-1.7802,-1.7789,-1.7772,-1.7758,-1.7746,-1.7741,-1.7737,-1.7744,-1.7736,-1.7715,-1.7712,-1.7708,-1.7708,-1.7743,-1.7743,-1.7759,-1.7759,-1.7759]}]]